Wind_Speed
12 11 11 10 8 8 7 5 5 6 5 7 8 9 8 7 6 4 7 9 9 9 9 9 9 7 8 11 11 9 12 11 9 11 12 11 11 12 12 12 13 12
12 11 11 11 10 9 7 6 7 7 7 7 8 5 4 6 7 7 8 8 8 9 10 9 8 8 11 14 14 12 12 12 11 11 12 12 12 12 12 12 13 12
12 12 12 11 9 8 7 8 8 7 8 7 2 5 9 7 5 7 9 8 7 10 9 9 8 8 10 11 12 14 14 12 12 13 12 12 12 12 12 13 13 12
13 13 13 9 7 9 11 9 8 8 8 7 6 9 8 6 6 8 9 7 9 12 12 11 9 8 8 8 8 10 12 11 12 13 13 13 13 12 13 13 13 13
14 13 12 11 13 13 10 8 9 9 9 9 10 10 8 7 8 9 12 12 12 12 11 11 10 9 9 10 10 9 8 11 13 13 13 14 14 12 12 13 13 14
15 14 13 14 15 11 7 9 10 9 9 10 9 8 9 8 6 5 7 7 9 7 6 6 7 9 8 8 8 8 7 11 15 14 12 12 13 12 12 14 14 14
16 15 16 15 12 8 9 11 10 9 9 10 9 9 9 7 8 8 7 6 7 6 5 6 6 6 6 6 8 8 7 9 13 14 11 10 12 12 12 14 14 13
16 13 15 14 10 10 12 10 9 10 10 9 9 9 8 7 8 9 8 8 7 6 6 6 6 6 6 8 9 8 7 7 8 10 9 8 9 10 11 14 13 12
13 11 12 12 11 11 11 10 11 11 10 9 9 10 9 9 9 8 8 8 6 6 6 5 5 5 7 8 8 7 7 6 7 8 8 7 6 7 10 13 14 12
13 11 12 13 13 12 11 11 12 11 11 11 10 10 9 9 9 9 7 8 8 7 6 5 5 4 5 5 6 7 7 6 7 8 9 8 8 9 11 12 13 11
14 14 14 13 13 13 12 12 12 12 12 11 11 10 10 9 9 8 9 10 7 5 4 4 5 5 5 4 3 5 6 6 7 7 8 9 9 9 11 12 11 11
16 16 16 14 14 14 13 13 12 12 12 11 11 11 9 10 10 9 9 8 5 3 2 4 4 4 3 3 2 4 4 4 5 6 7 7 6 7 10 11 10 10
16 16 16 15 14 14 14 14 12 12 13 11 10 11 10 7 5 4 5 5 4 3 2 0 1 2 3 2 2 4 3 2 1 3 6 7 6 7 10 11 9 11
15 15 16 15 15 16 15 13 13 13 12 10 10 12 10 6 3 4 4 3 2 3 1 2 3 3 4 1 2 3 5 5 1 2 6 7 6 7 9 9 8 10
15 15 17 16 16 17 15 13 13 13 10 9 9 9 7 6 5 4 5 4 2 3 3 2 1 3 4 4 4 5 8 8 2 1 2 3 3 6 8 8 7 10
16 16 17 16 16 18 16 13 13 13 9 8 9 8 6 6 6 6 5 5 3 3 4 4 4 6 8 6 6 9 10 8 4 1 0 2 4 6 6 6 8 12
17 16 16 16 16 17 16 13 13 13 9 7 8 9 7 6 6 7 6 5 4 4 3 2 6 9 8 7 8 10 9 7 6 2 1 3 6 6 5 5 8 10
16 17 17 17 16 16 16 14 12 12 9 7 8 8 7 6 7 7 7 6 7 7 3 1 3 6 7 8 8 8 7 6 6 3 1 1 2 4 6 6 8 8
16 17 17 17 16 15 16 15 12 11 11 9 9 9 7 7 7 6 7 8 8 7 5 3 5 8 8 7 7 7 6 6 6 5 2 3 2 4 5 6 9 7
17 17 16 16 15 14 15 15 13 11 11 11 10 9 8 7 7 6 6 7 7 6 5 4 5 8 9 9 7 7 7 6 7 5 3 4 4 4 6 9 10 7
16 15 15 14 15 15 14 14 13 11 10 10 9 9 8 7 6 7 7 7 7 6 4 4 7 11 12 10 8 7 7 7 7 5 4 6 3 2 8 13 11 6
16 16 15 15 15 15 14 13 12 11 10 10 10 9 8 7 6 6 7 7 7 6 5 6 8 11 10 8 7 7 7 8 7 5 6 7 2 1 9 14 10 6
17 16 14 14 15 14 14 13 12 12 11 11 12 11 9 8 7 4 5 6 6 7 7 6 6 9 10 7 7 8 8 8 7 5 6 8 4 3 9 13 9 6
17 17 14 14 16 13 12 13 12 12 12 11 11 10 9 9 8 6 6 7 8 8 8 7 7 10 11 9 7 8 8 8 7 6 6 8 6 5 9 12 10 9
15 15 10 10 15 14 13 14 12 11 12 12 11 11 10 10 9 8 7 8 8 7 7 8 10 10 11 9 8 8 8 9 8 7 7 9 8 7 8 11 11 12
12 13 11 9 11 13 13 13 12 12 13 12 11 11 9 8 8 7 8 9 8 9 9 9 10 10 10 11 10 8 8 9 9 9 9 10 10 9 9 10 11 12
Wind_Direction
179 170 156 157 153 149 178 196 153 144 130 121 155 182 182 158 135 76 46 48 45 56 63 67 87 80 46 58 71 78 80 67 49 51 51 51 43 28 32 29 20 34
178 163 148 162 171 166 178 175 159 155 137 157 196 198 141 124 119 98 74 59 49 53 56 58 71 75 61 54 48 53 74 75 58 52 48 46 43 29 28 31 24 25
173 159 152 174 184 172 182 178 164 152 143 164 186 97 113 124 130 127 121 115 82 59 56 62 71 72 62 52 35 30 46 62 60 58 54 47 44 30 23 29 27 24
170 157 154 171 176 175 190 177 152 150 155 150 121 121 136 128 107 97 92 91 63 46 44 50 57 68 72 70 58 35 33 48 55 57 52 47 47 34 22 26 28 25
158 151 160 176 180 185 188 157 143 157 157 145 144 153 146 111 89 63 49 50 50 44 46 49 42 50 81 101 96 72 48 45 47 51 46 37 41 35 21 22 24 24
148 158 178 188 188 186 167 148 152 155 150 148 148 137 121 116 118 86 60 69 80 80 80 82 56 37 53 77 66 51 46 35 31 41 43 28 31 32 20 19 21 23
158 177 188 190 189 168 149 156 154 143 146 148 141 131 129 147 158 137 125 129 119 105 87 94 94 64 52 57 39 29 38 25 11 22 31 21 25 23 9 12 15 19
164 184 189 186 174 152 153 156 145 142 149 149 143 139 122 110 121 119 119 138 137 108 83 82 92 80 65 61 52 46 49 31 7 14 19 7 15 16 8 10 10 12
167 187 182 170 157 152 159 154 145 149 154 153 141 127 112 110 134 153 146 147 145 112 89 83 77 45 32 34 38 47 51 36 23 23 13 354 3 17 10 8 3 358
175 178 158 156 158 157 160 156 151 153 154 149 131 127 146 158 169 176 145 109 94 86 77 74 85 78 55 36 20 32 43 33 20 21 17 5 11 19 5 5 3 342
175 163 151 160 162 156 159 158 152 153 152 143 139 153 167 146 127 125 112 100 93 93 75 53 71 94 89 77 34 20 31 28 17 21 23 8 10 19 6 10 12 333
170 162 160 165 159 156 161 156 151 153 148 146 158 167 151 121 113 105 98 104 118 127 87 53 62 70 79 95 68 30 26 32 27 25 21 4 7 19 2 2 8 331
168 166 166 163 158 162 160 154 156 156 149 154 165 154 140 131 119 104 107 122 146 150 124 183 186 100 86 99 34 14 340 315 45 45 22 8 4 9 354 348 353 334
168 168 165 160 163 166 160 157 162 157 156 163 154 141 146 158 133 118 139 153 155 157 178 259 222 137 108 102 355 355 314 298 215 105 22 8 3 7 359 344 334 325
164 165 163 161 170 170 159 161 165 161 168 174 152 140 149 164 167 167 169 164 171 202 228 253 166 147 184 235 290 311 309 308 281 152 14 23 18 6 3 350 329 325
162 167 167 165 176 173 160 165 170 164 176 186 165 159 172 187 191 190 181 179 198 252 274 259 219 216 230 253 303 314 310 313 321 313 113 71 13 350 357 351 328 326
163 170 172 171 180 175 164 169 172 166 173 186 172 167 187 209 196 184 193 203 214 248 301 274 208 214 243 283 308 311 303 310 331 338 145 41 7 341 340 330 307 316
167 173 175 176 179 174 168 169 171 172 176 183 185 178 186 203 192 193 215 215 215 231 242 305 249 255 285 301 300 298 296 307 336 345 225 156 15 327 327 315 297 310
172 178 177 178 176 174 174 171 168 176 180 183 190 188 191 205 202 214 236 225 225 234 211 210 282 291 295 298 293 294 301 310 329 340 280 212 233 305 302 280 290 309
179 182 177 176 175 175 178 175 171 178 184 182 185 190 200 212 210 219 246 249 249 244 203 206 268 281 281 288 294 299 308 315 320 329 297 259 269 298 280 270 289 306
179 178 174 174 176 178 176 174 175 181 186 185 186 196 204 213 220 222 233 251 263 254 221 226 259 269 275 282 290 299 306 311 316 323 305 281 256 250 279 283 294 291
174 174 177 176 176 178 174 173 179 182 183 189 192 197 206 224 238 227 221 244 274 271 249 238 245 259 272 282 292 301 305 309 311 316 306 291 264 202 276 286 302 300
173 171 177 177 177 179 173 176 188 188 184 191 195 198 209 225 236 234 226 247 271 266 260 262 263 275 286 292 294 295 300 307 305 294 292 288 277 239 264 279 298 295
172 170 177 176 176 181 179 182 193 194 187 192 201 207 214 216 226 242 241 247 260 260 258 259 257 269 280 284 289 290 294 303 299 285 283 282 275 258 263 278 291 284
167 167 178 175 171 181 188 189 198 202 195 198 208 216 219 215 221 235 241 252 268 270 262 256 255 262 273 280 287 287 288 296 293 283 275 271 271 264 257 269 279 281
159 165 177 182 183 187 186 186 200 208 203 207 212 211 214 217 219 235 248 251 249 247 253 266 275 276 275 280 286 287 288 292 290 284 275 271 274 267 252 261 277 282
Height
1553 1555 1557 1558 1559 1560 1560 1560 1560 1561 1562 1562 1562 1561 1561 1562 1562 1562 1562 1561 1562 1561 1561 1561 1562 1563 1563 1562 1562 1562 1561 1562 1563 1563 1563 1563 1563 1563 1562 1562 1561 1561
1554 1555 1557 1558 1559 1560 1561 1560 1561 1561 1562 1562 1561 1561 1561 1562 1562 1563 1563 1563 1562 1562 1562 1562 1563 1563 1563 1563 1563 1563 1562 1563 1563 1563 1564 1564 1564 1564 1563 1562 1562 1561
1553 1555 1557 1558 1559 1560 1561 1560 1561 1561 1562 1562 1561 1561 1562 1562 1562 1562 1563 1563 1563 1563 1563 1563 1563 1564 1564 1564 1565 1564 1564 1563 1563 1564 1564 1564 1564 1564 1563 1562 1562 1561
1552 1554 1556 1558 1559 1559 1560 1560 1561 1561 1561 1562 1562 1562 1562 1562 1562 1563 1563 1564 1563 1564 1564 1564 1564 1564 1564 1565 1566 1566 1565 1565 1564 1564 1564 1564 1564 1565 1564 1563 1562 1562
1552 1554 1556 1557 1557 1558 1559 1560 1561 1561 1561 1562 1562 1562 1562 1563 1563 1564 1564 1564 1564 1564 1565 1565 1565 1565 1565 1566 1567 1567 1567 1566 1565 1565 1565 1565 1565 1565 1564 1563 1563 1562
1551 1554 1555 1556 1556 1557 1559 1561 1561 1561 1562 1562 1562 1562 1563 1564 1564 1564 1565 1565 1566 1566 1567 1567 1567 1567 1567 1567 1567 1567 1567 1567 1566 1566 1566 1566 1565 1565 1565 1564 1563 1563
1552 1553 1554 1556 1556 1557 1559 1560 1560 1561 1562 1563 1563 1563 1563 1563 1564 1565 1565 1566 1567 1567 1567 1567 1568 1568 1568 1568 1568 1568 1568 1568 1567 1567 1567 1566 1566 1566 1565 1564 1564 1563
1553 1554 1555 1556 1556 1558 1559 1559 1560 1561 1562 1563 1563 1563 1563 1564 1564 1565 1566 1567 1567 1567 1568 1568 1568 1568 1569 1569 1569 1569 1569 1570 1569 1568 1568 1567 1566 1566 1565 1564 1564 1563
1552 1555 1556 1556 1556 1558 1559 1559 1559 1561 1562 1562 1563 1563 1564 1564 1565 1565 1566 1566 1567 1568 1568 1569 1569 1569 1569 1569 1569 1569 1570 1570 1569 1568 1568 1568 1567 1566 1565 1564 1564 1563
1551 1553 1555 1555 1557 1558 1559 1559 1559 1560 1561 1562 1563 1564 1564 1564 1565 1565 1566 1566 1567 1568 1569 1569 1570 1569 1570 1570 1570 1570 1570 1570 1570 1569 1568 1568 1567 1567 1565 1564 1565 1563
1550 1552 1553 1554 1556 1558 1558 1559 1559 1560 1561 1562 1564 1564 1564 1565 1565 1566 1566 1567 1568 1569 1569 1570 1570 1570 1570 1571 1571 1571 1570 1570 1570 1569 1569 1568 1568 1567 1565 1565 1565 1564
1548 1550 1552 1554 1556 1557 1558 1559 1559 1560 1561 1562 1563 1563 1564 1565 1565 1566 1567 1567 1569 1570 1570 1570 1570 1570 1570 1570 1571 1571 1570 1570 1569 1569 1568 1568 1568 1568 1566 1565 1565 1564
1547 1549 1551 1554 1556 1557 1558 1559 1560 1560 1561 1562 1563 1563 1565 1566 1566 1566 1567 1568 1569 1570 1570 1570 1570 1571 1571 1571 1571 1570 1570 1569 1569 1568 1568 1568 1567 1568 1567 1566 1565 1564
1546 1549 1551 1553 1555 1556 1558 1559 1559 1560 1560 1561 1562 1563 1564 1566 1566 1567 1568 1569 1569 1570 1570 1570 1570 1570 1571 1571 1571 1570 1569 1569 1568 1568 1568 1568 1568 1567 1567 1566 1565 1563
1546 1548 1550 1553 1555 1556 1558 1559 1559 1560 1560 1561 1562 1563 1564 1566 1567 1567 1568 1569 1569 1569 1570 1570 1570 1570 1570 1570 1570 1569 1568 1568 1568 1567 1567 1567 1567 1567 1567 1566 1564 1563
1546 1548 1550 1553 1554 1555 1557 1558 1559 1559 1560 1561 1562 1563 1565 1565 1566 1567 1568 1569 1569 1569 1570 1570 1570 1570 1570 1570 1569 1568 1568 1567 1567 1566 1566 1566 1566 1567 1567 1567 1565 1563
1546 1549 1550 1552 1553 1555 1556 1557 1558 1559 1559 1560 1562 1563 1564 1565 1565 1566 1567 1568 1569 1569 1569 1569 1569 1569 1569 1569 1568 1567 1567 1566 1566 1566 1566 1565 1566 1566 1567 1566 1565 1563
1547 1549 1550 1552 1553 1554 1556 1556 1557 1559 1559 1560 1562 1563 1564 1564 1565 1566 1566 1567 1567 1568 1568 1568 1568 1568 1568 1568 1567 1567 1566 1565 1565 1565 1565 1565 1565 1566 1566 1565 1564 1563
1547 1548 1550 1551 1552 1554 1555 1556 1557 1558 1559 1560 1561 1563 1564 1564 1565 1566 1566 1566 1566 1566 1567 1567 1567 1567 1567 1567 1567 1566 1565 1565 1564 1564 1564 1564 1564 1564 1565 1564 1563 1563
1547 1548 1549 1551 1552 1553 1554 1555 1556 1557 1558 1560 1561 1562 1563 1564 1565 1565 1565 1566 1566 1566 1566 1567 1567 1566 1566 1566 1566 1565 1564 1564 1563 1563 1563 1563 1563 1563 1563 1563 1562 1562
1546 1548 1549 1550 1551 1552 1553 1554 1556 1557 1558 1560 1561 1562 1563 1563 1564 1565 1565 1565 1565 1565 1565 1566 1566 1565 1565 1565 1564 1564 1563 1563 1562 1562 1562 1562 1562 1562 1562 1561 1561 1561
1546 1548 1549 1550 1551 1552 1553 1554 1555 1556 1558 1559 1560 1562 1562 1563 1563 1564 1564 1564 1564 1564 1564 1565 1564 1564 1564 1564 1563 1562 1562 1561 1561 1561 1561 1561 1561 1562 1561 1560 1560 1560
1546 1547 1548 1549 1551 1551 1552 1554 1555 1556 1558 1559 1560 1561 1562 1562 1563 1563 1563 1564 1564 1564 1564 1563 1563 1563 1562 1562 1562 1561 1561 1560 1560 1560 1560 1560 1560 1560 1561 1560 1559 1559
1546 1547 1548 1549 1550 1551 1553 1554 1555 1556 1557 1558 1559 1560 1560 1562 1562 1562 1563 1563 1563 1563 1563 1563 1563 1562 1561 1561 1561 1560 1560 1559 1559 1559 1559 1559 1559 1559 1560 1559 1558 1558
1545 1546 1548 1548 1550 1551 1552 1553 1554 1556 1557 1557 1558 1559 1559 1560 1561 1561 1562 1562 1562 1562 1561 1561 1561 1560 1560 1560 1559 1559 1558 1558 1558 1558 1558 1558 1558 1558 1558 1558 1557 1557
1545 1547 1548 1548 1549 1550 1552 1553 1554 1555 1556 1557 1557 1558 1559 1559 1560 1560 1561 1561 1561 1561 1560 1560 1560 1559 1559 1558 1558 1558 1557 1557 1557 1557 1557 1557 1557 1557 1557 1557 1557 1556